PDT,Max TemperatureF,Mean TemperatureF,Min TemperatureF,Max Dew PointF,MeanDew PointF,Min DewpointF,Max Humidity, Mean Humidity, Min Humidity, Max Sea Level PressureIn, Mean Sea Level PressureIn, Min Sea Level PressureIn, Max VisibilityMiles, Mean VisibilityMiles, Min VisibilityMiles, Max Wind SpeedMPH, Mean Wind SpeedMPH, Max Gust SpeedMPH,PrecipitationIn, CloudCover, Events, WindDirDegrees
2013-10-1,78,64,51,50,48,47,86,61,35,30.01,29.95,29.91,10,10,10,6,4,,0.00,0,,220
2013-10-2,79,64,50,48,43,30,89,52,26,30.00,29.95,29.91,10,10,10,13,4,22,0.00,0,,214
2013-10-3,73,65,57,33,28,25,39,25,17,30.06,30.01,29.96,10,10,10,25,12,40,0.00,0,,347
2013-10-4,81,72,62,28,24,20,26,18,12,30.11,30.06,30.01,10,10,10,26,19,41,0.00,0,,354
2013-10-5,82,68,52,36,25,19,53,23,11,30.22,30.16,30.12,10,10,10,10,6,18,0.00,0,,9
2013-10-6,84,64,43,40,34,30,74,40,15,30.16,30.08,29.99,10,10,10,7,1,,0.00,0,,278
2013-10-7,87,66,46,39,33,21,68,36,10,30.00,29.93,29.85,10,10,10,8,2,,0.00,0,,228
2013-10-8,79,64,50,41,37,32,59,37,19,29.91,29.82,29.68,10,10,10,9,4,,0.00,0,,275
2013-10-9,75,60,46,42,36,32,77,42,22,29.75,29.66,29.61,10,10,10,15,5,26,0.00,0,,322
2013-10-10,75,62,48,44,38,32,68,45,28,29.99,29.89,29.76,10,10,10,8,3,,0.00,0,,260
2013-10-11,75,58,43,45,42,38,86,58,31,30.08,30.01,29.96,10,10,9,7,2,,0.00,0,,211
2013-10-12,75,58,41,47,42,37,86,57,31,30.00,29.93,29.85,10,10,10,12,3,17,0.00,0,,202
2013-10-13,77,66,55,45,35,31,54,35,20,30.05,29.99,29.90,10,10,10,17,9,25,0.00,0,,338
2013-10-14,80,62,44,38,33,28,76,39,15,30.14,30.07,30.01,10,10,10,9,3,20,0.00,0,,336
2013-10-15,82,62,44,34,28,24,68,32,13,30.06,30.01,29.96,10,10,10,17,4,30,0.00,0,,343
2013-10-16,80,63,46,37,32,27,61,37,17,30.12,30.06,30.01,10,10,10,6,1,,0.00,0,,48
2013-10-17,81,63,45,37,34,30,71,42,17,30.10,30.03,29.96,10,10,10,5,1,,0.00,0,,227
2013-10-18,82,64,45,38,36,31,71,44,16,30.06,30.01,29.97,10,10,10,6,1,,0.00,0,,108
2013-10-19,84,63,44,42,38,36,79,48,19,30.10,30.04,30.00,10,10,9,5,0,,0.00,0,,206
2013-10-20,82,64,45,43,39,36,76,48,20,30.02,29.95,29.88,10,10,10,9,1,,0.00,0,,223
2013-10-21,82,62,45,47,42,38,79,53,24,30.01,29.95,29.90,10,10,10,6,1,,0.00,0,,193
2013-10-22,84,64,44,45,41,39,86,52,20,30.03,29.96,29.90,10,10,10,6,1,,0.00,0,,356
2013-10-23,82,64,45,45,41,39,83,52,24,29.96,29.90,29.84,10,10,10,9,1,,0.00,0,,189
2013-10-24,73,58,44,46,45,41,89,64,37,30.04,29.98,29.90,10,10,10,8,5,,0.00,0,,225
2013-10-25,77,58,42,47,44,40,93,64,32,30.18,30.11,30.06,10,10,8,6,2,,0.00,0,,287
2013-10-26,81,62,43,46,42,39,89,59,24,30.16,30.08,30.00,10,10,9,5,1,,0.00,0,,295
2013-10-27,66,56,45,48,43,33,83,68,38,29.99,29.79,29.57,10,10,9,24,7,37,0.00,0,,223
2013-10-28,64,52,41,47,41,37,86,66,40,29.83,29.71,29.65,10,10,10,13,4,20,0.00,1,,207
2013-10-29,63,52,43,46,44,40,97,71,48,30.06,29.97,29.85,10,10,10,8,2,,0.00,5,,260
2013-10-30,68,54,41,46,42,38,93,70,42,30.16,30.11,30.06,10,9,7,5,1,,0.00,0,,290
2013-10-31,73,56,39,43,40,38,93,64,30,30.19,30.13,30.08,10,10,9,5,0,,0.00,0,,175